Location: Detroit
(42.3310°N, 83.0460°W)
Time: 06:04:53
(UTC-05:00)

Transit 2A - All Passes

Search period start: 28 January 2023 00:00
Search period end: 07 February 2023 00:00
Orbit: 594 x 962 km, 66.7° (Epoch: 28 January)

Date Brightness Start Highest point End Pass type
(mag) Time Alt. Az. Time Alt. Az. Time Alt. Az.
28 Jan - 01:43:58 10° N 01:46:49 13° NE 01:49:45 10° ENE night (unlit)
28 Jan - 03:25:27 10° NNW 03:31:22 53° NE 03:37:33 10° SE visible
28 Jan - 05:09:08 10° NW 05:14:22 30° WSW 05:19:44 10° SSW visible
28 Jan - 18:06:46 10° S 18:10:52 31° ESE 18:15:22 10° NE visible
28 Jan - 19:49:32 10° WSW 19:53:56 35° NW 19:58:47 10° NNE visible
29 Jan - 01:10:38 10° NNE 01:11:50 11° NNE 01:13:04 10° NE night (unlit)
29 Jan - 02:51:06 10° NNW 02:56:44 39° NE 03:02:37 10° ESE night (unlit)
29 Jan - 04:34:17 10° NW 04:40:01 42° WSW 04:45:55 10° S visible
29 Jan - 17:33:09 10° SSE 17:36:37 21° ESE 17:40:20 10° ENE daylight
29 Jan - 19:14:40 10° SW 19:19:17 49° NW 19:24:26 10° NNE visible
29 Jan - 21:02:30 10° NW 21:03:57 11° NNW 21:05:26 10° NNW visible
30 Jan - 02:16:48 10° NNW 02:22:02 30° NE 02:27:29 10° ESE night (unlit)
30 Jan - 03:59:35 10° NW 04:05:36 59° WSW 04:11:49 10° SSE night (unlit)
30 Jan - 17:00:09 10° SE 17:02:25 13° ESE 17:04:45 10° ENE daylight
30 Jan - 18:39:58 10° SW 18:44:42 72° WNW 18:50:00 10° NNE visible
30 Jan - 20:26:15 10° WNW 20:29:00 14° NW 20:31:53 10° N visible
31 Jan - 01:42:33 10° N 01:47:16 23° NE 01:52:08 10° E night (unlit)
31 Jan - 03:25:00 10° NNW 03:31:08 81° WSW 03:37:31 10° SSE night (unlit)
31 Jan - 05:10:38 10° WNW 05:13:32 14° WSW 05:16:27 10° SW night (unlit)
31 Jan - 18:05:30 10° SSW 18:10:12 77° ESE 18:15:29 10° NNE visible
31 Jan - 19:50:36 10° W 19:54:07 19° NW 19:57:52 10° N visible
01 Feb - 01:08:25 10° N 01:12:25 18° NE 01:16:33 10° E night (unlit)
01 Feb - 02:50:29 10° NNW 02:56:37 75° ENE 03:02:59 10° SE night (unlit)
01 Feb - 04:34:57 10° WNW 04:39:17 20° WSW 04:43:43 10° SSW night (unlit)
01 Feb - 17:31:14 10° S 17:35:47 50° ESE 17:40:50 10° NE daylight
01 Feb - 19:15:14 10° W 19:19:17 25° NW 19:23:42 10° N visible
02 Feb - 00:34:26 10° N 00:37:30 14° NE 00:40:39 10° ENE night (unlit)
02 Feb - 02:16:02 10° NNW 02:22:02 55° NE 02:28:15 10° SE night (unlit)
02 Feb - 03:59:48 10° NW 04:05:00 29° WSW 04:10:18 10° SSW night (unlit)
02 Feb - 16:57:13 10° S 17:01:26 33° ESE 17:06:04 10° NE daylight
02 Feb - 18:40:07 10° WSW 18:44:33 34° NW 18:49:26 10° NNE visible
03 Feb - 00:00:53 10° NNE 00:02:32 11° NNE 00:04:12 10° NE night (unlit)
03 Feb - 01:41:39 10° NNW 01:47:24 41° NE 01:53:20 10° ESE night (unlit)
03 Feb - 03:24:56 10° NW 03:30:38 40° WSW 03:36:30 10° S night (unlit)
03 Feb - 16:23:32 10° SSE 16:27:09 22° ESE 16:31:03 10° ENE daylight
03 Feb - 18:05:13 10° SW 18:09:52 48° NW 18:15:04 10° NNE daylight
03 Feb - 19:53:09 10° NW 19:54:35 11° NNW 19:56:03 10° NNW visible
04 Feb - 01:07:21 10° NNW 01:12:41 31° NE 01:18:13 10° ESE night (unlit)
04 Feb - 02:50:12 10° NW 02:56:14 56° WSW 03:02:25 10° S night (unlit)
04 Feb - 15:50:24 10° SE 15:52:56 14° ESE 15:55:36 10° ENE daylight
04 Feb - 17:30:30 10° SW 17:35:16 70° WNW 17:40:38 10° NNE daylight
04 Feb - 19:16:53 10° WNW 19:19:37 14° NW 19:22:29 10° N visible
05 Feb - 00:33:05 10° N 00:37:55 24° NE 00:42:54 10° E night (unlit)
05 Feb - 02:15:35 10° NNW 02:21:45 78° WSW 02:28:07 10° SSE night (unlit)
05 Feb - 04:01:26 10° WNW 04:04:06 13° WSW 04:06:48 10° SW night (unlit)
05 Feb - 16:55:59 10° SSW 17:00:45 80° ESE 17:06:05 10° NNE daylight
05 Feb - 18:41:11 10° W 18:44:43 18° NW 18:48:29 10° N visible
05 Feb - 23:58:55 10° N 00:03:04 19° NE 00:07:20 10° E night (unlit)
06 Feb - 01:41:03 10° NNW 01:47:14 77° ENE 01:53:37 10° SE night (unlit)
06 Feb - 03:25:37 10° WNW 03:29:52 19° WSW 03:34:10 10° SSW night (unlit)
06 Feb - 16:21:41 10° S 16:26:18 53° ESE 16:31:28 10° NE daylight
06 Feb - 18:05:48 10° W 18:09:52 24° NW 18:14:18 10° N daylight
06 Feb - 23:24:53 10° N 23:28:09 15° NE 23:31:29 10° ENE night (unlit)
